Location: Hurstbourne Priors
(51.2000°N, 1.3667°W)
Time: 22:55:16
(UTC+00:00)

Altair - Pass Details

Date: 12 April 2021
Orbit: 1501 x 1683 km, 47.2° (Epoch: 13 May)

Event Time Altitude Azimuth Distance (km) Brightness Sun altitude
Rises 08:17:36 0° 228° (SW) 4,820 9.9 27.1°
Reaches altitude 10° 08:20:52 10° 223° (SW) 3,810 9.5 27.6°
Maximum altitude 08:29:58 49° 153° (SSE) 1,927 9.1 28.9°
Drops below altitude 10° 08:38:47 10° 82° (E) 3,692 10.5 30.1°
Sets 08:41:53 0° 77° (ENE) 4,660 10.7 30.6°
